Погода в Сандански

Болгария     41°33′36″N   23°16′49″E
темп.,
°C
ветер,
м/с
пор.,
м/с
влажн.,
%
обл.,
%
осадки,
мм/ч
давл.,
гПа
погр.,
м
19 мая, ср
ср1900:00+12ссз22530 0.0 101416
03:00+11с11535 0.0 101513
06:00+10с115370 0.0 101412
09:00+15в11505 0.0 1014247
12:00+21ююв234192 0.0 1013904
15:00+22ююв2340100 0.0 10111523
18:00+23вюв234649 0.0 10091556
21:00+16юв11712 0.1 100912
20 мая, чт
чт2000:00+14ссз11824 0.2 101011
03:00+13ссз11813 0.2 100913
06:00+11с22735 0.0 100818
09:00+18з25516 0.0 1009992
12:00+20зюз234480 0.1 10081806
15:00+19ссз455118 0.8 10081140
18:00+19ссз345185 0.2 1008970
21:00+14сз3468100 0.3 100958
21 мая, пт
пт2100:00+12ссз477876 0.6 1011328
03:00+10сз3578100 0.8 1013198
06:00+9сз2375100 0.0 1012133
09:00+12сз5860100 0.0 10131231
12:00+14сз785874 0.0 10141284
15:00+17сз885110 0.0 10141329
18:00+16сз795413 0.0 10151151
21:00+10сз34732 0.0 101866
22 мая, сб
сб2200:00+8сз23811 0.0 101940
03:00+8ссз33826 0.0 101936
06:00+7ссз2281100 0.0 101825
09:00+14ссв01615 0.0 1018410
12:00+19ююв214634 0.0 10171007
15:00+22ююв22406 0.0 10151615
18:00+23ю23410 0.0 10141550
21:00+15св01625 0.0 101512
23 мая, вс
вс2300:00+13ссв11685 0.0 101611
03:00+11ссв1172100 0.0 101610
06:00+10ссв117417 0.0 101610
09:00+16ю106120 0.0 1015260
12:00+22ююв11475 0.0 1014736
15:00+25юв23381 0.0 10121300
18:00+26ю22401 0.0 10111090
21:00+19зсз01592 0.0 101211